Change the Weather History Date:

Thursday, April 3, 2014

  Actual Average Record
Temperature  
Mean Temperature 50 °F -  
Max Temperature 57 °F 54 °F 73 °F (2004)
Min Temperature 42 °F 39 °F 30 °F (2007)
Degree Days  
Heating Degree Days 16    
Moisture  
Dew Point 41 °F    
Average Humidity 75    
Maximum Humidity 89    
Minimum Humidity 47    
Precipitation  
Precipitation 0.07 in - - ()
Sea Level Pressure  
Sea Level Pressure 29.96 in    
Wind  
Wind Speed 4 mph (SSE)    
Max Wind Speed 10 mph    
Max Gust Speed 16 mph    
Visibility 10 miles    
Events Rain    
Averages and records for this station are not official NWS values.
T = Trace of Precipitation, MM = Missing Value Source: NWS Daily Summary

Daily Weather History Graph

Daily Weather History Graph

Search for Another Location

Airport or City:

Trip Planner

Search our weather history database for the weather conditions in past years. The results will help you decide how hot, cold, wet, or windy it might be!

Date:

Astronomy

Apr. 03, 2014 Rise Set
Actual Time 6:43 AM PDT 7:41 PM PDT
Civil Twilight 6:12 AM PDT 8:12 PM PDT
Nautical Twilight 5:34 AM PDT 8:50 PM PDT
Astronomical Twilight 4:55 AM PDT 9:30 PM PDT
Moon 9:02 AM PDT (4/3) No Moon Set
Length of Visible Light 14h 00m
Length of Day
12h 58m
Waxing Crescent, 18% of the Moon is Illuminated
Apr 3
Waxing Crescent
Apr 7
First Quarter
Apr 15
Full
Apr 22
Last Quarter
Apr 28
New

Hourly Weather History & Observations

Time (PDT) Temp. Windchill Dew Point Humidity Pressure Visibility Wind Dir Wind Speed Gust Speed Precip Events Conditions
12:53 AM 46.0 °F 44.8 °F 39.9 °F 79% 30.03 in 10.0 mi ESE 3.5 mph - N/A   Clear
1:53 AM 45.0 °F - 39.0 °F 80% 30.02 in 10.0 mi Calm Calm - N/A   Clear
2:53 AM 44.1 °F 42.5 °F 39.0 °F 82% 30.01 in 10.0 mi SSE 3.5 mph - N/A   Clear
3:53 AM 43.0 °F - 39.0 °F 86% 30.00 in 10.0 mi Calm Calm - N/A   Clear
4:53 AM 42.1 °F - 39.0 °F 89% 29.99 in 10.0 mi Calm Calm - N/A   Clear
5:53 AM 42.1 °F 39.2 °F 39.0 °F 89% 29.99 in 10.0 mi ESE 4.6 mph - N/A   Partly Cloudy
6:53 AM 42.1 °F 40.2 °F 39.0 °F 89% 29.99 in 10.0 mi SE 3.5 mph - N/A   Mostly Cloudy
7:53 AM 43.0 °F 39.5 °F 37.9 °F 82% 29.99 in 10.0 mi ESE 5.8 mph - N/A   Partly Cloudy
8:53 AM 45.0 °F 42.6 °F 39.0 °F 80% 29.99 in 10.0 mi SE 4.6 mph - N/A   Mostly Cloudy
9:53 AM 48.9 °F - 39.9 °F 71% 29.98 in 10.0 mi SSE 4.6 mph - N/A   Partly Cloudy
10:53 AM 52.0 °F - 39.9 °F 63% 29.96 in 10.0 mi South 5.8 mph - N/A   Clear
11:53 AM 54.0 °F - 39.0 °F 57% 29.95 in 10.0 mi Variable 5.8 mph - N/A   Clear
12:53 PM 57.0 °F - 37.0 °F 47% 29.94 in 10.0 mi SSE 8.1 mph - N/A   Overcast
1:53 PM 57.0 °F - 37.0 °F 47% 29.92 in 10.0 mi SSE 6.9 mph - N/A   Overcast
2:53 PM 55.0 °F - 39.9 °F 57% 29.93 in 10.0 mi SSW 10.4 mph - N/A   Overcast
3:53 PM 52.0 °F - 46.0 °F 80% 29.92 in 10.0 mi SSE 6.9 mph - 0.04 in Rain Light Rain
4:53 PM 52.0 °F - 45.0 °F 77% 29.92 in 8.0 mi South 8.1 mph - 0.00 in Rain Light Rain
5:53 PM 51.1 °F - 44.1 °F 77% 29.91 in 10.0 mi SSE 6.9 mph - 0.01 in Rain Light Rain
6:53 PM 51.1 °F - 43.0 °F 74% 29.91 in 10.0 mi SSE 8.1 mph 16.1 mph 0.01 in Rain Light Rain
8:53 PM 48.9 °F - 45.0 °F 86% 29.92 in 10.0 mi SE 5.8 mph - 0.01 in Rain Light Rain
9:53 PM 48.9 °F - 44.1 °F 83% 29.93 in 10.0 mi SE 5.8 mph - 0.00 in   Overcast
10:53 PM 48.9 °F - 43.0 °F 80% 29.93 in 10.0 mi SSE 8.1 mph - 0.00 in   Mostly Cloudy
11:53 PM 48.0 °F - 42.1 °F 80% 29.94 in 10.0 mi SSE 8.1 mph - N/A   Overcast